Showing default

HAWK-A, 43765

Orbit data source: Space-Track

HAWK-A, 43765 is a payload satellite owned by HawkEye 360 (US) in SSO that was launched on Mon, 03 Dec 2018 UTC via an FALCON 9 launch vehicle from the Air Force Western Test Range (AFWTR). Payload-class satellites include a variety of spacecraft equipped with specific instruments for various scientific and technological missions. These include communications satellites like Starlink; space stations such as the ISS; scientific satellites like the Hubble; Earth observation satellites from companies like Planet Labs, Umbra, and HawkEye 360; GPS; miniature CubeSats for education and research; and military/defense satellites.

Loading next visibility...
Identifier
43765, 2018-099H
Orbit
SSO
Country
Flag of USUS
Related business
Manufacturer
UTIAS-SFL
Mission
Operational Commercial Sigint
Bus & Motor
NEMO-V1, Unknown motor
Mass
12.75 kg wet, 12 kg dry
Launch date (UTC)
2018-12-03 (7 years ago)
Launch vehicle
FALCON 9
Launch site
Air Force Western Test Range (AFWTR)
Object type
Payload
Rocket body
Debris
Shape & HBR
Box + 2 Pan, 1.0 m
Radar Cross Section
0.348 m², Medium (>0.1 m² and < 1m²)

Expand to show TLE details & history
Last TLE update: 8 hours ago

TLE from 8 hours ago
0 HAWK-A
1 43765U 18099H   26125.08930720  .00007839  00000-0  31949-3 0  9993
2 43765  97.3942 177.8971 0036825  78.3075 282.2291 15.24100389406532
Epoch: 2026-05-05T02:08Z
TLE epoch observation values (Epoch: 2026-05-05T02:08:36.142Z)
Latitude
Longitude
-77.22265°
Altitude
491.312 km
Speed
7.622 km/s
True Right ascension
11h 51m 35s
True Declination
0° 00' 00"
Sunlit
Object was in full shadow at epoch
Visualization orbit readout
Latitude
Unknown
Longitude
Unknown
Altitude
Unknown
Speed
Unknown
Apparent Right ascension
Unknown
Apparent Declination
Unknown
Sunlit
N/A
Visualization observer readout
Local Sidereal Time
18:06:31
Azimuth
Unknown
Elevation
Unknown
Doppler factor
Unknown
Orbital elements
Apogee altitude
515.741 km
Perigee altitude
465.154 km
Semi-major axis
6,868.585 km
Eccentricity
0.00368
Inclination
97.3942°
RAAN
177.8971°
Arg. of periapsis
78.3075°
True anomaly
281.81629°
Mean anomaly
282.2291°
Eccentric anomaly
282.02274°
Mean motion
3.81278 °/min
Orbital period
94.42 mins
BSTAR
0.00031949
Loading maneuver chart data...
Computing Atmospheric mass density...
Loading historical data...
Loading historical data...
Loading historical data...
Loading historical data...
Loading historical data...
Loading historical data...
Loading historical data...

Documentation

Showing up to 5 results
|